Weather Roundup
Issued by NWS Springfield, MO

Home | Current Version | Previous Version | Text Only | Print | Product List | Glossary On
Versions: 1 2 3 4 5 6 7 8 9 10 11 12 13 14 15 16 17 18 19 20 21 22 23 24 25 26 27 28 29 30 31 32 33 34 35 36 37 38 39 40 41 42 43 44 45 46 47 48 49 50
000
NZUS99 KSGF 302107
HRRSGF

HOURLY WEATHER
NATIONAL WEATHER SERVICE SPRINGFIELD MO
400 PM CDT TUE SEP 30 2014

......SGF CWA......

CITY           SKY/WX    TMP DP  RH WIND       PRES   REMARKS
SPRINGFIELD    SUNNY     83  53  35 S8        29.87F
JOPLIN         MOSUNNY   82  58  43 S13       29.84F
WEST PLAINS    SUNNY     81  51  35 MISG      29.91F
ROLLA          CLOUDY    82  52  35 SE6       29.86F
OSAGE BEACH    MOSUNNY   82  57  42 S5        29.86F
BRANSON        PTSUNNY   86  54  32 S8        29.90F

......SURROUNDING SGF CWA......

CITY           SKY/WX    TMP DP  RH WIND       PRES   REMARKS
CHANUTE        SUNNY     83  61  47 S16       29.80F
PARSONS        MOSUNNY   84  62  47 S12G21    29.81F
COFFEYVILLE    MOSUNNY   84  63  49 SE15      29.79F
EMPORIA        PTSUNNY   82  62  50 S15       29.78F
GROVE OK       MOSUNNY   84  61  45 S13       29.85F
ROGERS AR      MOSUNNY   81  58  45 S13       29.88F
SILOAM SPRINGS MOSUNNY   82  61  47 S13       29.88F
HARRISON AR    MOSUNNY   82  58  43 S7        29.90F
NEAR YELLVILLE SUNNY     82  52  34 SE5       29.88F

......KANSAS AND MISSOURI......

CITY           SKY/WX    TMP DP  RH WIND       PRES   REMARKS
KANSAS CTY INT MOSUNNY   83  59  44 S14G21    29.81F
DOWNTOWN KC    SUNNY     84  56  38 S16G29    29.80F
COLUMBIA       PTSUNNY   84  55  36 VRB3      29.86F
SEDALIA        MOSUNNY   84  57  39 SW14      29.85F
ST JOSEPH      PTSUNNY   84  58  40 S14       29.79F
ST LOUIS       PTSUNNY   85  56  37 E6        29.89F
SPIRIT OF STL  PTSUNNY  N/A N/A N/A CALM      29.86F
KIRKSVILLE     SUNNY     74  62  66 E10       29.89F
WICHITA        PTSUNNY   88  58  36 S21G28    29.73F
TOPEKA         MOSUNNY   85  57  38 S16       29.77F
OLATHE         MOSUNNY   82  58  43 S16G23    29.81F

......TENNESSEE......

CITY           SKY/WX    TMP DP  RH WIND       PRES   REMARKS
MEMPHIS        PTSUNNY   86  58  38 SW5       29.87F
NASHVILLE      MOSUNNY   87  49  26 NE8       29.89F

......ARKANSAS.......

CITY           SKY/WX    TMP DP  RH WIND       PRES   REMARKS
FAYETTEVILLE   MOSUNNY   80  60  50 S8        29.88F
FT SMITH       PTSUNNY   83  62  49 SE8       29.85F
LITTLE ROCK    PTSUNNY   88  55  32 S7        29.86F

......OKLAHOMA.......

CITY           SKY/WX    TMP DP  RH WIND       PRES   REMARKS
TULSA          MOSUNNY   86  63  45 S15G25    29.78F
PONCA CITY     MOSUNNY   87  58  37 S13G21    29.75F
MCALESTER      MOSUNNY   86  64  47 VRB6G16   29.82F
OKLAHOMA CITY  MOSUNNY   87  57  35 S14G24    29.77F

......IOWA............

CITY           SKY/WX    TMP DP  RH WIND       PRES   REMARKS
DES MOINES     PTSUNNY   69  59  70 E13       29.86F

......ILLINOIS........

CITY           SKY/WX    TMP DP  RH WIND       PRES   REMARKS
QUINCY         SUNNY     74  61  63 E8        29.90F
CHICAGO        CLOUDY    58  46  64 NE15      30.01F



USA.gov is the U.S. government's official web portal to all federal, state and local government web resources and services.